Lid_Strength_Index
3 5 9 9 12 13 15 13 11 10 10 10 9 9 8 9 9 11 3 1 0 0 -0 -0 -1 -1 -1 -1 -1 -1 -1 -0 -0 -0 0 0 0 0 0 0 0 0 -1 -0 -0 -0 0 0 0
4 7 10 11 13 17 15 11 12 11 10 9 7 8 9 11 6 5 4 1 0 0 -0 -0 -1 -1 -1 -1 -1 -1 -0 -0 -0 0 0 0 0 0 0 0 1 1 1 0 0 1 1 1 1
8 9 12 12 14 16 15 11 11 11 11 10 10 7 8 9 6 4 2 0 0 1 -0 -0 -1 -1 -1 -1 -1 -1 -0 0 0 0 0 1 0 1 1 1 1 1 -0 1 1 1 1 1 1
10 11 12 15 15 12 12 11 12 11 10 10 9 10 7 4 4 3 1 0 1 1 0 -1 -1 -1 -1 -1 -1 -1 -0 0 0 0 0 1 1 1 1 1 1 0 1 1 1 1 1 1 1
11 13 15 16 15 12 11 11 11 12 12 11 10 9 9 4 2 1 2 1 1 1 0 -0 -1 -1 -1 -1 -1 -0 0 0 0 1 1 1 1 1 1 2 2 1 0 1 1 1 1 1 2
13 14 17 17 16 13 11 11 12 13 12 12 8 9 8 3 2 2 1 1 1 1 0 -0 -0 -1 -1 -1 -1 -0 0 0 1 1 1 1 1 2 2 2 2 0 -0 1 1 1 1 1 2
14 15 18 18 16 14 13 11 13 13 13 12 7 10 8 4 2 2 2 2 2 1 1 1 1 0 -0 -1 -1 -0 0 1 2 2 2 2 2 2 2 2 2 0 0 1 1 1 1 1 1
14 15 18 17 16 15 13 12 12 12 12 11 6 10 9 5 2 2 2 3 2 2 1 2 1 1 1 1 0 1 1 1 2 2 2 2 2 3 3 3 2 1 1 1 1 1 1 1 1
13 17 18 17 16 14 13 13 12 12 12 7 7 7 5 3 2 2 3 2 2 2 2 2 2 2 3 3 3 2 2 1 2 2 2 4 6 6 6 3 2 2 1 2 1 2 2 2 2
15 17 16 15 15 15 13 14 13 13 13 12 9 6 4 3 3 4 4 4 3 3 2 1 2 3 4 3 4 5 5 6 6 6 6 5 6 6 6 5 3 3 2 2 2 2 3 4 5
15 17 15 14 13 12 13 13 13 14 13 13 12 8 4 4 4 4 4 3 3 3 2 2 3 4 4 5 6 7 8 8 8 8 6 6 6 7 6 6 7 7 5 5 5 6 6 5 5
15 13 13 12 12 13 13 13 13 12 12 11 13 5 5 5 5 4 4 3 3 3 3 2 3 4 5 5 7 8 9 9 8 7 7 7 7 7 7 7 7 7 6 6 7 6 6 5 5
14 13 11 11 12 12 12 13 13 14 11 11 11 5 5 5 4 4 3 2 2 3 2 3 3 3 4 6 7 9 9 9 8 8 7 7 7 7 6 7 7 7 6 7 7 6 6 5 3
13 12 13 12 12 12 13 12 14 13 12 12 12 6 5 5 4 4 4 4 3 2 2 2 2 3 4 6 7 9 9 8 8 8 7 6 7 6 6 7 7 7 7 6 6 6 6 4 3
12 15 15 15 14 14 13 15 15 12 12 12 12 12 5 5 4 4 4 4 3 2 2 2 2 3 4 5 6 8 8 8 8 8 7 7 6 6 6 6 7 7 7 6 6 5 5 3 3
14 17 20 16 13 14 14 18 13 13 14 13 13 13 12 6 4 4 3 3 3 2 2 2 2 3 4 5 6 7 8 9 9 8 7 6 6 6 6 6 7 7 6 6 6 6 5 3 3
19 22 20 18 15 15 15 18 14 11 12 13 13 13 13 12 7 4 3 2 3 3 2 3 3 3 4 5 6 7 8 9 9 9 8 7 6 6 6 6 6 6 7 6 5 6 6 4 3
23 23 21 22 17 16 17 18 15 13 12 13 12 12 12 13 12 6 3 2 2 2 2 3 3 3 4 5 6 7 9 9 9 9 8 7 6 6 6 6 6 6 7 6 6 6 4 3 3
20 22 23 20 18 19 18 20 18 15 14 14 13 12 12 12 11 11 4 2 2 2 2 3 3 3 4 5 6 7 8 10 10 9 7 7 6 6 6 6 6 6 7 6 6 4 3 3 3
18 20 21 20 17 18 20 21 19 17 17 15 14 13 12 11 12 12 11 3 3 3 2 2 2 3 4 4 5 7 8 9 9 8 7 6 6 6 6 6 6 6 7 6 6 4 4 4 4
17 19 19 20 17 17 19 22 19 16 15 14 13 12 11 10 10 11 13 6 3 3 2 2 2 3 3 4 6 8 8 9 10 9 8 7 6 6 6 6 6 6 6 6 6 5 5 5 4
19 16 17 18 19 22 18 27 21 19 17 15 13 12 12 11 10 10 12 10 3 3 2 2 2 2 3 4 6 7 7 8 8 8 7 7 7 6 6 6 5 6 6 6 6 5 5 5 6
18 15 17 18 19 20 20 23 22 18 18 16 14 13 12 11 10 10 11 11 4 3 2 2 2 2 3 5 5 6 6 7 9 9 9 7 7 6 6 6 6 5 5 6 5 5 5 5 6
15 17 17 18 19 25 20 21 22 21 18 16 14 13 11 11 11 10 9 11 8 3 2 2 2 2 2 4 5 6 6 8 8 8 8 7 7 7 7 6 6 5 5 5 5 5 5 5 5
16 19 30 31 28 27 19 20 20 16 15 15 15 13 12 11 12 11 10 11 11 4 3 3 2 3 2 3 4 5 6 8 8 8 8 8 7 7 7 6 6 6 5 5 5 5 5 5 5
18 18 24 28 26 24 19 22 20 14 13 13 13 12 12 10 10 10 10 10 11 8 3 3 3 3 2 3 4 5 6 8 7 7 7 7 7 7 7 7 6 6 5 5 5 5 5 5 5
17 19 13 17 18 20 20 17 15 13 13 13 12 12 11 10 9 9 9 10 10 10 4 3 3 3 2 2 3 4 5 7 7 7 7 7 7 6 7 6 6 6 5 5 5 5 5 5 6
15 12 17 15 21 21 18 17 16 13 12 12 11 10 11 10 10 10 11 11 10 10 8 2 2 3 2 2 3 4 4 6 6 7 7 7 6 6 6 6 6 6 5 5 5 5 5 5 6
15 15 14 14 16 20 22 18 12 12 11 10 10 9 9 10 9 10 11 11 11 9 9 5 3 3 3 2 2 3 4 5 6 6 7 7 6 6 6 6 6 6 5 5 5 5 5 5 6
15 15 13 18 21 18 18 20 10 10 10 10 10 9 8 8 9 9 9 10 10 10 10 7 3 3 2 2 2 3 4 5 6 6 7 6 6 6 6 6 6 6 5 5 5 5 5 5 6